Location: Isle of Man Observatory
(54.1776°N, 4.6264°W)
Time: 18:11:54
(UTC+01:00)

X-37B - Pass Details

Date: 12 December 2021
Orbit: 334 x 337 km, 45.0° (Epoch: 11 January)

Event Time Altitude Azimuth Distance (km) Brightness Sun altitude
Rises 19:52:57 0° 246° (WSW) 2,104 5.5 -24.4°
Reaches altitude 10° 19:55:40 10° 217° (SW) 1,266 3.7 -24.8°
Enters shadow 19:55:50 11° 214° (SSW) 1,232 3.6 -24.8°
